This is the latest recevied weather packets stored in our database for station/object IZ5MMH-14. If no packets are shown the sender has not sent any weather packets the latest 10 day(s).
| Time | Temp. | Humidity | Pressure | Rain* | Wind** | Luminosity | Snow |
|---|---|---|---|---|---|---|---|
| 1777752609 | 18.33° C | 85% | 1021.7 hPa | - | - | - | - |
| 1777752009 | 18.89° C | 83% | 1021.7 hPa | - | - | - | - |
| 1777747809 | 20° C | 74% | 1021.5 hPa | - | - | - | - |
| 1777746009 | 21.11° C | 68% | 1021.2 hPa | - | - | - | - |
| 1777745408 | 21.11° C | 73% | 1021.2 hPa | - | - | - | - |
| 1777739408 | 21.11° C | 54% | 1021.5 hPa | - | - | - | - |
| 1777738809 | 21.11° C | 57% | 1021.5 hPa | - | - | - | - |
| 1777738208 | 20.56° C | 56% | 1021.7 hPa | - | - | - | - |
| 1777737008 | 21.11° C | 56% | 1021.7 hPa | - | - | - | - |
| 1777736409 | 21.11° C | 56% | 1021.9 hPa | - | - | - | - |
| 1777735808 | 21.11° C | 52% | 1021.9 hPa | - | - | - | - |
| 1777735208 | 21.11° C | 48% | 1022 hPa | - | - | - | - |
| 1777734608 | 21.11° C | 42% | 1022.1 hPa | - | - | - | - |
| 1777734008 | 21.11° C | 45% | 1022.1 hPa | - | - | - | - |
| 1777733409 | 21.11° C | 45% | 1022.2 hPa | - | - | - | - |
| 1777732808 | 21.11° C | 51% | 1022.3 hPa | - | - | - | - |
| 1777732208 | 21.11° C | 44% | 1022.4 hPa | - | - | - | - |
| 1777731608 | 21.67° C | 43% | 1022.4 hPa | - | - | - | - |
| 1777731008 | 22.78° C | 39% | 1022.4 hPa | - | - | - | - |
| 1777729208 | 24.44° C | 33% | 1022.8 hPa | - | - | - | - |
| 1777728608 | 24.44° C | 32% | 1022.9 hPa | - | - | - | - |
| 1777728009 | 23.33° C | 38% | 1022.9 hPa | - | - | - | - |
| 1777727408 | 24.44° C | 31% | 1022.9 hPa | - | - | - | - |
| 1777726209 | 23.33° C | 34% | 1023.2 hPa | - | - | - | - |
| 1777725608 | 25° C | 31% | 1023.3 hPa | - | - | - | - |
* Rain since midnight (hover to see other rain measurements)
** Current wind speed in m/s (hover to see current wind gust speed)